Miscellaneous Local Product
Issued by NWS Hastings, NE

Home | Current Version | Previous Version | Graphics & Text | Print | Product List | Glossary On
Versions: 1 2 3 4 5 6 7 8 9 10 11 12 13 14 15 16 17 18 19 20 21 22 23 24 25 26 27 28 29 30 31 32 33 34 35 36 37 38 39 40 41 42 43 44 45 46 47 48 49 50
000
AXUS43 KGID 261502
MISGRI

GID CWA HOURLY WEATHER ROUNDUP
NATIONAL WEATHER SERVICE HASTINGS NE
900 AM CST THU FEB 26 2015

NOTE: "FAIR" INDICATES FEW OR NO CLOUDS BELOW 12,000 FEET WITH NO
SIGNIFICANT WEATHER AND/OR OBSTRUCTIONS TO VISIBILITY.

...SOUTH CENTRAL NEBRASKA...

CITY           SKY/WX    TMP DP  RH WIND       PRES   REMARKS
GRAND ISLAND   MOSUNNY    4  -6  63 N18       30.48R WCI -16
HASTINGS       SUNNY      5  -5  63 N22       30.44R WCI -16
KEARNEY        MOSUNNY    7   0  72 N17       30.44R WCI -12
ORD            MOSUNNY    3  -6  66 NW16      30.45R WCI -16
YORK           SUNNY      5  -2  72 N18G26    30.47R WCI -15
AURORA         SUNNY      4  -5  66 N20G25    30.46R WCI -16
LEXINGTON      SUNNY      9   2  72 N18       30.42R WCI  -9
HOLDREGE       SUNNY      8  -1  66 N16       30.42R WCI -10
HEBRON         SUNNY      6  -5  61 N15G23    30.49R WCI -12

...NEBRASKA PANHANDLE...

CITY           SKY/WX    TMP DP  RH WIND       PRES   REMARKS
CHADRON        CLOUDY     7   0  73 NE10      30.38R HAZE    WCI  -8
ALLIANCE       CLOUDY     8   1  73 N12       30.30R WCI  -7
SCOTTSBLUFF    CLOUDY    10   3  73 NE12      30.30R WCI  -5
SIDNEY         LGT SNOW  11   4  73 NE7       30.26R WCI   0

...WESTERN AND NORTH CENTRAL NEBRASKA...

CITY           SKY/WX    TMP DP  RH WIND       PRES   REMARKS
VALENTINE      MOSUNNY    2  -4  76 N9        30.43R WCI -13
AINSWORTH      SUNNY      1  -4  77 N10       30.43R WCI -15
ONEILL         SUNNY      0  -4  80 N13G20    30.47R WCI -18
BROKEN BOW     SUNNY      6  -2  69 N16G26    30.42R WCI -12
IMPERIAL       SUNNY     12   0  58 NE15      30.35R WCI  -4
NORTH PLATTE   SUNNY      7  -2  66 N12       30.40R WCI  -8
MCCOOK         SUNNY     14   1  56 N18       30.40R WCI  -3

...EASTERN NEBRASKA...

CITY           SKY/WX    TMP DP  RH WIND       PRES   REMARKS
NORFOLK        SUNNY      1  -7  68 NW16      30.48R WCI -19
SO SIOUX CITY  SUNNY      0  -9  65 NW15      30.51R WCI -19
TEKAMAH        SUNNY      2  -7  66 N17       30.52R WCI -18
COLUMBUS       SUNNY      1 -11  55 N18       30.49R WCI -19
ALBION         SUNNY      2  -6  70 N13G20    30.47R WCI -16
OMAHA EPPLEY   MOSUNNY    3  -4  72 N21       30.50R WCI -18
OFFUTT AFB     MOSUNNY    4  -5  68 NW10      30.49R WCI -12
MILLARD        SUNNY      3  -5  68 N13G20    30.50R WCI -14
LINCOLN        SUNNY      4  -5  66 N18       30.51R WCI -16
NEBRASKA CITY  SUNNY      4  -5  65 N17       30.47R WCI -15
BEATRICE       MOSUNNY    6  -3  66 N20       30.47S WCI -14
FALLS CITY     SUNNY      7  -3  64 NW14G23   30.46R WCI -10

...NORTHERN KANSAS...

CITY           SKY/WX    TMP DP  RH WIND       PRES   REMARKS
GOODLAND       CLOUDY    14   7  73 NE10      30.31R WCI   1
HILL CITY      SUNNY     12   1  61 N13       30.45R WCI  -3
NORTON         SUNNY     10   0  61 N14G20    30.40S WCI  -5
PHILLIPSBURG   SUNNY     12   1  62 N17       30.46S WCI  -5
SMITH CENTER   SUNNY      9   1  72 N24       30.46R WCI -12
BELOIT         SUNNY     10   3  72 N20G28    30.49R WCI  -8
HAYS           SUNNY     12  -6  44 N18       30.43S WCI  -5
RUSSELL        FAIR      12   0  58 N21       30.44R WCI  -7
CONCORDIA      SUNNY      8  -3  61 N22       30.47R WCI -12
SALINA         SUNNY     12  -3  51 N22       30.48R WCI  -7
TOPEKA         SUNNY     12   1  61 N17       30.46R WCI  -5



USA.gov is the U.S. government's official web portal to all federal, state and local government web resources and services.